Time,TemperatureF,DewpointF,PressureIn,WindDirection,WindDirectionDegrees,WindSpeedMPH,WindSpeedGustMPH,Humidity,HourlyPrecipIn,Conditions,Clouds,dailyrainin,SolarRadiationWatts/m^2,SoftwareType,DateUTC
2014-09-21 00:04:00,66.5,58.7,29.93,SW,216,9.3,15.0,76,0.00,OVC,,0.00,0.0,WeatherDisplay:10.37,2014-09-21 04:04:00,
2014-09-21 00:09:00,66.4,59.0,29.93,SSE,164,9.9,16.0,77,0.00,OVC,,0.00,0.0,WeatherDisplay:10.37,2014-09-21 04:09:00,
2014-09-21 00:14:00,66.3,58.9,29.93,SE,142,12.5,17.3,77,0.00,OVC,,0.00,0.0,WeatherDisplay:10.37,2014-09-21 04:14:00,
2014-09-21 00:19:00,66.2,58.8,29.93,SSE,159,8.3,16.0,77,0.00,OVC,,0.00,0.0,WeatherDisplay:10.37,2014-09-21 04:19:00,
2014-09-21 00:24:00,66.2,58.8,29.92,SSW,192,10.5,15.0,77,0.00,OVC,,0.00,0.0,WeatherDisplay:10.37,2014-09-21 04:24:00,
2014-09-21 00:29:00,66.2,59.1,29.92,SSE,160,9.1,15.0,78,0.00,OVC,,0.00,0.0,WeatherDisplay:10.37,2014-09-21 04:29:00,
2014-09-21 00:34:00,66.2,59.1,29.92,South,170,10.4,16.0,78,0.00,OVC,,0.00,0.0,WeatherDisplay:10.37,2014-09-21 04:34:00,
2014-09-21 00:39:00,66.2,59.1,29.92,SE,133,10.6,18.0,78,0.00,OVC,,0.00,0.0,WeatherDisplay:10.37,2014-09-21 04:39:00,
2014-09-21 00:44:00,66.2,59.1,29.92,South,169,8.9,15.0,78,0.00,OVC,,0.00,0.0,WeatherDisplay:10.37,2014-09-21 04:44:00,
2014-09-21 00:49:00,66.3,59.2,29.92,SE,139,13.1,21.0,78,0.00,OVC,,0.00,0.0,WeatherDisplay:10.37,2014-09-21 04:49:00,
2014-09-21 00:54:00,66.3,59.2,29.91,SSE,166,11.7,16.1,78,0.00,OVC,,0.00,0.0,WeatherDisplay:10.37,2014-09-21 04:54:00,
2014-09-21 00:57:00,66.3,59.2,29.91,SSE,161,10.8,20.0,78,0.00,OVC,,0.00,0.0,WeatherDisplay:10.37,2014-09-21 04:57:00,
2014-09-21 01:02:00,66.2,59.1,29.91,South,179,8.7,21.0,78,0.00,BKN,,0.00,0.0,WeatherDisplay:10.37,2014-09-21 05:02:00,
2014-09-21 01:07:00,66.2,59.1,29.91,SSE,160,12.7,19.6,78,0.00,BKN,,0.00,0.0,WeatherDisplay:10.37,2014-09-21 05:07:00,
2014-09-21 01:12:00,66.2,59.1,29.91,SE,127,13.4,19.6,78,0.00,BKN,,0.00,0.0,WeatherDisplay:10.37,2014-09-21 05:12:00,
2014-09-21 01:17:00,66.2,59.1,29.91,SE,134,7.6,15.0,78,0.00,BKN,,0.00,0.0,WeatherDisplay:10.37,2014-09-21 05:17:00,
2014-09-21 01:22:00,66.0,58.9,29.91,SSE,165,7.0,19.6,78,0.00,BKN,,0.00,0.0,WeatherDisplay:10.37,2014-09-21 05:22:00,
2014-09-21 01:27:00,66.0,58.9,29.90,SE,132,11.9,18.4,78,0.00,BKN,,0.00,0.0,WeatherDisplay:10.37,2014-09-21 05:27:00,
2014-09-21 01:32:00,66.0,59.3,29.90,South,190,15.0,15.0,79,0.00,BKN,,0.00,0.0,WeatherDisplay:10.37,2014-09-21 05:32:00,
2014-09-21 01:37:00,65.9,58.8,29.90,SSE,149,13.6,21.0,78,0.00,BKN,,0.00,0.0,WeatherDisplay:10.37,2014-09-21 05:37:00,
2014-09-21 01:42:00,65.7,59.0,29.89,SSE,158,9.2,12.7,79,0.00,BKN,,0.00,0.0,WeatherDisplay:10.37,2014-09-21 05:42:00,
2014-09-21 01:47:00,65.6,58.9,29.89,SSE,165,7.5,12.0,79,0.00,BKN,,0.00,0.0,WeatherDisplay:10.37,2014-09-21 05:47:00,
2014-09-21 01:52:00,65.6,58.9,29.89,SSE,163,8.5,16.1,79,0.00,BKN,,0.00,0.0,WeatherDisplay:10.37,2014-09-21 05:52:00,
2014-09-21 01:57:00,65.6,58.9,29.88,SSE,165,10.9,19.0,79,0.00,BKN,,0.00,0.0,WeatherDisplay:10.37,2014-09-21 05:57:00,
2014-09-21 02:02:00,65.5,58.8,29.88,SSE,165,8.7,13.0,79,0.00,BKN,,0.00,0.0,WeatherDisplay:10.37,2014-09-21 06:02:00,
2014-09-21 02:07:00,65.4,59.1,29.88,SE,132,8.3,24.2,80,0.00,BKN,,0.00,0.0,WeatherDisplay:10.37,2014-09-21 06:07:00,
2014-09-21 02:12:00,65.2,58.9,29.87,South,186,13.6,19.6,80,0.00,BKN,,0.00,0.0,WeatherDisplay:10.37,2014-09-21 06:12:00,
2014-09-21 02:17:00,65.1,58.8,29.87,SSE,158,10.5,19.6,80,0.00,BKN,,0.00,0.0,WeatherDisplay:10.37,2014-09-21 06:17:00,
2014-09-21 02:22:00,65.0,59.0,29.87,SE,140,9.3,15.0,81,0.00,BKN,,0.00,0.0,WeatherDisplay:10.37,2014-09-21 06:22:00,
2014-09-21 02:27:00,65.0,59.0,29.86,SSE,163,7.5,16.1,81,0.00,BKN,,0.00,0.0,WeatherDisplay:10.37,2014-09-21 06:27:00,
2014-09-21 02:32:00,64.9,58.9,29.86,SE,143,10.9,18.0,81,0.00,BKN,,0.00,0.0,WeatherDisplay:10.37,2014-09-21 06:32:00,
2014-09-21 02:37:00,64.8,58.8,29.86,SSE,155,9.8,15.0,81,0.00,BKN,,0.00,0.0,WeatherDisplay:10.37,2014-09-21 06:37:00,
2014-09-21 02:42:00,64.9,58.9,29.84,SE,138,11.2,23.0,81,0.00,BKN,,0.00,0.0,WeatherDisplay:10.37,2014-09-21 06:42:00,
2014-09-21 02:47:00,64.8,58.8,29.84,South,177,10.0,17.3,81,0.00,BKN,,0.00,0.0,WeatherDisplay:10.37,2014-09-21 06:47:00,
2014-09-21 02:52:00,64.8,58.8,29.84,SW,219,11.5,17.3,81,0.00,BKN,,0.00,0.0,WeatherDisplay:10.37,2014-09-21 06:52:00,
2014-09-21 02:57:00,64.7,58.7,29.83,SSE,164,7.8,12.0,81,0.00,BKN,,0.00,0.0,WeatherDisplay:10.37,2014-09-21 06:57:00,
2014-09-21 03:02:00,64.7,58.7,29.83,SSE,151,8.1,17.3,81,0.00,CLR,,0.00,0.0,WeatherDisplay:10.37,2014-09-21 07:02:00,
2014-09-21 03:07:00,64.8,58.8,29.83,SSW,197,7.1,17.0,81,0.00,CLR,,0.00,0.0,WeatherDisplay:10.37,2014-09-21 07:07:00,
2014-09-21 03:12:00,64.8,58.8,29.83,South,173,8.2,16.1,81,0.00,CLR,,0.00,0.0,WeatherDisplay:10.37,2014-09-21 07:12:00,
2014-09-21 03:17:00,64.7,58.7,29.83,South,169,10.9,15.0,81,0.00,CLR,,0.00,0.0,WeatherDisplay:10.37,2014-09-21 07:17:00,
2014-09-21 03:22:00,64.7,58.7,29.83,SSE,167,9.5,17.3,81,0.00,CLR,,0.00,0.0,WeatherDisplay:10.37,2014-09-21 07:22:00,
2014-09-21 03:27:00,64.7,58.7,29.82,SE,134,7.2,16.1,81,0.00,CLR,,0.00,0.0,WeatherDisplay:10.37,2014-09-21 07:27:00,
2014-09-21 03:32:00,64.6,58.6,29.82,SSE,159,8.7,16.0,81,0.00,CLR,,0.00,0.0,WeatherDisplay:10.37,2014-09-21 07:32:00,